Content
SEND FEEDBACK

Daily
Averages
Monthly
Summary
United States of America

UMATAC, GUAM


Home > North America > United States > Guam
Elevation: 190 feet     Latitude: 13 17N     Longitude: 144 40E

WEATHER
 
SELECT A DAY
Number of Records: 342,038;   Date Range: 1/1/95 - 7/29/14
 
SHARE

PRINT THIS DATA

[ ← Previous Day ]
WEATHER ALMANAC - APRIL 19, 2013
[ Next Day → ]
[ °C ]   °F
Weather ElementAverageHighLow
Temperature77.8 °F84.2 °F (12:15 pm)73.4 °F (5:54 am)
Dewpoint73.6 °F75.2 °F (7:50 am)71.6 °F (12:52 am)
Humidity87.3 %100 % (6:08 am)67 % (10:55 am)
Barometer29.84 in29.89 in (10:22 pm)29.77 in (3:04 pm)
Wind Speed7.7 mph13.8 mph (5:39 am)
Wind Gust16.1 mph (12:15 pm)
Weather ElementAverage
Visibility8.5 mi
Wind DirectionE (92.6 °)

Weather ElementTotal
Precipitation0.21 in
Cooling Degree Days13.8 (Base 65)
Growing Degree Days28.8 (Base 50)
Averaged from 93 records on April 19, 2013
WEATHER CONDITIONS BREAKOUT
WIND DIRECTION BREAKOUT
WEATHER BY HOUR - APRIL 19, 2013
[ °C ]   °F
Local TimeTemperatureDewpointHumidityBarometerVisibilityWind DirectionWind SpeedGust SpeedPrecipitationEventsConditions
12:21 AM77.0 °F73.4 °F89 %29.85 in10.0 miEast (100°)9.2 mphOvercast
12:24 AM77.0 °F73.4 °F89 %29.85 in10.0 miEast (100°)10.4 mphOvercast
12:25 AM77.0 °F73.4 °F89 %29.85 in10.0 miEast (90°)10.4 mphOvercast
12:28 AM77.0 °F73.4 °F89 %29.85 in10.0 miEast (90°)10.4 mphOvercast
12:31 AM77.0 °F73.4 °F89 %29.85 in10.0 miEast (80°)9.2 mphOvercast
12:35 AM75.2 °F73.4 °F94 %29.85 in10.0 miENE (70°)9.2 mphOvercast
12:52 AM77.0 °F71.6 °F83 %29.84 in10.0 miNorth (10°)5.8 mphOvercast
12:55 AM76.1 °F71.6 °F86 %29.84 in10.0 miNorth (10°)4.6 mphOvercast
1:50 AM77.0 °F73.4 °F89 %29.83 in10.0 miSSE (150°)12.7 mphOvercast
1:53 AM77.0 °F73.4 °F89 %29.83 in10.0 miSE (140°)10.4 mphOvercast
1:55 AM76.1 °F73.4 °F91 %29.83 in10.0 miSSE (150°)10.4 mphOvercast
1:56 AM75.2 °F73.4 °F94 %29.82 in10.0 miSSE (150°)10.4 mphOvercast
1:57 AM75.2 °F73.4 °F94 %29.82 in10.0 miSSE (150°)11.5 mphOvercast
2:03 AM75.2 °F73.4 °F94 %29.82 in10.0 miSSE (150°)8.1 mphOvercast
2:04 AM75.2 °F73.4 °F94 %29.82 in10.0 miSSE (160°)10.4 mphOvercast
2:06 AM75.2 °F73.4 °F94 %29.82 in10.0 miSSE (160°)11.5 mphOvercast
2:28 AM75.2 °F71.6 °F89 %29.82 in10.0 miSE (130°)6.9 mphLight Drizzle
2:44 AM75.2 °F71.6 °F89 %29.81 in10.0 miSSE (160°)4.6 mphOvercast
2:55 AM75.6 °F72.0 °F89 %29.81 in10.0 miSouth (190°)3.5 mph0.00 inOvercast
3:55 AM76.6 °F73.2 °F89 %29.81 in10.0 miEast (90°)3.5 mphMostly Cloudy
4:55 AM75.0 °F71.8 °F90 %29.81 in10.0 miNorth (360°)6.9 mphOvercast
5:34 AM75.2 °F71.6 °F89 %29.82 in10.0 miNE (50°)6.9 mphRainLight Rain
5:39 AM75.2 °F73.4 °F94 %29.82 in8.0 miENE (70°)13.8 mphRainLight Rain
5:51 AM75.2 °F73.4 °F94 %29.83 in2.5 miENE (60°)8.1 mphRainHeavy Rain
5:54 AM73.4 °F71.6 °F94 %29.83 in2.5 miENE (70°)8.1 mphRainHeavy Rain
5:55 AM74.1 °F72.0 °F93 %29.83 in2.5 miENE (70°)8.1 mph0.09 inRainHeavy Rain
5:58 AM73.4 °F71.6 °F94 %29.83 in2.5 miENE (70°)6.9 mphRainHeavy Rain
6:02 AM73.4 °F71.6 °F94 %29.83 in2.5 miEast (80°)5.8 mphRainLight Rain
6:08 AM73.4 °F73.4 °F100 %29.83 in3.0 miEast (80°)3.5 mphRainLight Rain
6:12 AM73.4 °F73.4 °F100 %29.83 in3.0 miCalmRainLight Rain
6:14 AM75.2 °F73.4 °F94 %29.83 in3.0 miCalmRainLight Rain
6:26 AM75.2 °F73.4 °F94 %29.83 in8.0 miENE (60°)3.5 mphOvercast
6:35 AM75.2 °F73.4 °F94 %29.83 in10.0 miNE (50°)3.5 mphOvercast
6:40 AM75.2 °F73.4 °F94 %29.83 in10.0 miENE (60°)3.5 mphOvercast
6:45 AM75.2 °F73.4 °F94 %29.84 in10.0 miCalmMostly Cloudy
6:55 AM76.3 °F73.9 °F92 %29.84 in10.0 miENE (60°)4.6 mph0.03 inMostly Cloudy
7:50 AM77.0 °F75.2 °F94 %29.85 in10.0 miNNE (20°)6.9 mphMostly Cloudy
7:54 AM77.0 °F75.2 °F94 %29.85 in10.0 miNNE (20°)8.1 mphLight Drizzle
7:55 AM77.2 °F74.7 °F92 %29.85 in10.0 miNNE (20°)8.1 mph0.00 inLight Drizzle
8:02 AM77.0 °F73.4 °F89 %29.86 in3.0 miEast (100°)9.2 mphRainRain
8:03 AM77.0 °F73.4 °F89 %29.86 in2.5 miESE (110°)11.5 mphRainHeavy Rain
8:04 AM75.2 °F73.4 °F94 %29.86 in2.0 miESE (110°)10.4 mphRainHeavy Rain
8:05 AM75.2 °F73.4 °F94 %29.86 in1.8 miESE (110°)10.4 mphRainHeavy Rain
8:06 AM75.2 °F73.4 °F94 %29.86 in1.8 miEast (100°)10.4 mphRainHeavy Rain
8:10 AM75.2 °F73.4 °F94 %29.86 in2.0 miEast (80°)8.1 mphRainLight Rain
8:12 AM75.2 °F73.4 °F94 %29.86 in2.0 miEast (90°)5.8 mphRainLight Rain
8:13 AM75.2 °F73.4 °F94 %29.86 in2.0 miEast (90°)6.9 mphRainLight Rain
8:14 AM75.2 °F73.4 °F94 %29.86 in2.5 miEast (90°)6.9 mphRainLight Rain
8:15 AM75.2 °F73.4 °F94 %29.86 in3.0 miEast (100°)6.9 mphLight Drizzle
8:24 AM77.0 °F75.2 °F94 %29.86 in8.0 miEast (100°)6.9 mphOvercast
8:33 AM77.0 °F75.2 °F94 %29.86 in10.0 miEast (90°)6.9 mphMostly Cloudy
8:35 AM77.0 °F75.2 °F94 %29.86 in10.0 miEast (90°)8.1 mphMostly Cloudy
8:42 AM77.0 °F73.4 °F89 %29.86 in10.0 miEast (90°)9.2 mphMostly Cloudy
8:55 AM77.5 °F74.7 °F91 %29.86 in10.0 miEast (90°)8.1 mph0.09 inMostly Cloudy
9:13 AM77.0 °F73.4 °F89 %29.86 in10.0 miEast (80°)5.8 mphOvercast
9:54 AM80.6 °F73.4 °F79 %29.86 in10.0 miESE (110°)4.6 mphOvercast
9:55 AM80.1 °F72.9 °F79 %29.86 in10.0 miESE (110°)4.6 mphOvercast
9:57 AM80.6 °F73.4 °F79 %29.85 in10.0 miEast (100°)6.9 mphOvercast
9:59 AM80.6 °F73.4 °F79 %29.86 in10.0 miEast (100°)5.8 mphMostly Cloudy
10:55 AM83.8 °F72.0 °F67 %29.84 in10.0 miESE (110°)9.2 mphClear
11:55 AM84.0 °F73.9 °F72 %29.82 in10.0 miEast (90°)9.2 mphPartly Cloudy
12:15 PM84.2 °F75.2 °F74 %29.81 in10.0 miESE (120°)11.5 mph16.1 mphMostly Cloudy
12:27 PM82.4 °F75.2 °F79 %29.81 in10.0 miEast (100°)8.1 mphMostly Cloudy
12:55 PM83.3 °F74.5 °F75 %29.80 in10.0 miESE (110°)12.7 mphMostly Cloudy
1:55 PM82.9 °F73.0 °F72 %29.78 in10.0 miESE (110°)9.2 mphOvercast
2:55 PM82.6 °F74.8 °F77 %29.78 in10.0 miEast (80°)8.1 mphOvercast
3:04 PM82.4 °F75.2 °F79 %29.77 in10.0 miENE (70°)9.2 mphOvercast
3:49 PM82.4 °F75.2 °F79 %29.78 in10.0 miENE (60°)8.1 mphOvercast
3:52 PM82.4 °F75.2 °F79 %29.78 in10.0 miEast (80°)9.2 mphOvercast
3:55 PM81.5 °F75.2 °F81 %29.78 in10.0 miENE (70°)10.4 mphOvercast
4:07 PM80.6 °F75.2 °F84 %29.78 in10.0 miEast (80°)8.1 mphOvercast
4:13 PM80.6 °F73.4 °F79 %29.78 in10.0 miEast (90°)8.1 mphMostly Cloudy
4:55 PM81.3 °F73.6 °F77 %29.78 in10.0 miESE (110°)8.1 mphMostly Cloudy
5:49 PM80.6 °F73.4 °F79 %29.80 in10.0 miEast (80°)8.1 mphOvercast
5:55 PM80.8 °F73.8 °F79 %29.81 in10.0 miENE (70°)8.1 mphOvercast
6:00 PM80.6 °F73.4 °F79 %29.81 in10.0 miEast (80°)6.9 mphOvercast
6:37 PM80.6 °F73.4 °F79 %29.82 in10.0 miEast (80°)8.1 mphOvercast
6:39 PM80.6 °F73.4 °F79 %29.82 in10.0 miEast (80°)6.9 mphOvercast
6:50 PM80.6 °F73.4 °F79 %29.83 in10.0 miEast (80°)9.2 mphMostly Cloudy
6:55 PM79.7 °F73.8 °F82 %29.83 in10.0 miESE (110°)6.9 mphMostly Cloudy
7:12 PM78.8 °F75.2 °F89 %29.83 in10.0 miEast (90°)8.1 mphOvercast
7:47 PM78.8 °F75.2 °F89 %29.85 in10.0 miESE (110°)4.6 mphMostly Cloudy
7:51 PM78.8 °F75.2 °F89 %29.85 in10.0 miEast (90°)5.8 mphMostly Cloudy
7:55 PM79.2 °F74.3 °F85 %29.85 in10.0 miEast (90°)8.1 mphMostly Cloudy
7:59 PM78.8 °F73.4 °F83 %29.85 in10.0 miEast (80°)9.2 mphMostly Cloudy
8:22 PM78.8 °F71.6 °F78 %29.86 in10.0 miEast (100°)6.9 mphOvercast
8:55 PM79.5 °F74.1 °F83 %29.87 in10.0 miESE (110°)5.8 mphOvercast
9:55 PM79.5 °F73.8 °F82 %29.88 in10.0 miEast (100°)8.1 mphMostly Cloudy
10:22 PM80.6 °F75.2 °F84 %29.89 in10.0 miEast (100°)9.2 mphMostly Cloudy
10:28 PM80.6 °F75.2 °F84 %29.89 in10.0 miEast (100°)10.4 mphMostly Cloudy
10:55 PM79.5 °F73.9 °F83 %29.88 in10.0 miESE (110°)8.1 mphScattered Clouds
11:55 PM79.5 °F75.0 °F86 %29.87 in10.0 miEast (100°)9.2 mphMostly Cloudy
11:56 PM78.8 °F75.2 °F89 %29.87 in10.0 miEast (100°)8.1 mphMostly Cloudy
Hourly data recorded from PGUA, located miles away from Umatac, Guam







STORIES FROM OUR PARTNERS